Regional Weather Roundup
Issued by NWS

Home | Current Version | Previous Version | Text Only | Print | Product List | Glossary On
Versions: 1 2 3 4 5 6 7 8 9 10 11 12 13 14 15 16 17 18 19 20 21 22 23 24 25 26 27 28 29 30 31 32 33 34 35 36 37 38 39 40 41 42 43 44 45 46 47 48 49 50
000
ASUS45 KTFX 172319
RWRMT
MONTANA HOURLY WEATHER ROUNDUP
NATIONAL WEATHER SERVICE GREAT FALLS MT
519 PM MDT WED SEP 17 2014

NOTE: "FAIR" INDICATES FEW OR NO CLOUDS BELOW 12000 FEET WITH NO
SIGNIFICANT WEATHER AND/OR OBSTRUCTIONS TO VISIBILITY.

* THESE STATIONS ARE NOT UNDER NWS QUALITY CONTROL. THEY DO NOT
   REPORT WEATHER SUCH AS PRECIPITATION OR FOG.

MTZ001>007-043-180000-
WEST OF THE DIVIDE
CITY           SKY/WX    TMP DP  RH WIND       PRES   REMARKS
KALISPELL      MOCLDY    79  45  30 S5        29.78F
MISSOULA       CLOUDY    81  46  29 SE3       29.80F
BUTTE          CLOUDY    75  34  22 SW12G21   30.00S
MULLAN PASS    CLOUDY    70  43  38 VRB3      29.96F
* ESSEX        N/A       79  45  30 W2         N/A
* LINCOLN      N/A       81  44  27 W4         N/A
* LOOKOUT PASS N/A       76  46  35 SE5        N/A
* POLSON       N/A       79  47  32 NE3        N/A
* RONAN APT    MOCLDY    81  48  32 W5         N/A
* SEELEY LAKE  N/A       84  43  24 S6G11      N/A
* THOMP F APT  CLOUDY    78  35  21 SW4G12     N/A
$$

MTZ008-052>055-180000-
SOUTHWEST MONTANA
CITY           SKY/WX    TMP DP  RH WIND       PRES   REMARKS
BOZEMAN        CLOUDY    79  45  30 N9        29.93R
DILLON         CLOUDY    77  36  23 NW17G23   29.98S
W YELLOWSTONE  MOCLDY    73  36  26 SW10      30.09F
* THREE FORKS  CLOUDY    79  70  74 N/A        N/A
* BOULDER HILL N/A       77  43  30 SW5        N/A
* MONIDA PASS  N/A       71  39  31 E2         N/A
* RAYNOLDS PAS N/A       73  60  64 SW8G14     N/A
* WHITEHALL    N/A       77  48  36 NW2        N/A
* WISE RIVER   N/A       73  32  22 W13G32     N/A
$$

MTZ009>010-012-014-046-048-049-054-180000-
EAST SLOPES AND CENTRAL MONTANA
CITY           SKY/WX    TMP DP  RH WIND       PRES   REMARKS
CUT BANK       MOCLDY    82  43  25 SW7       29.80F
GREAT FALLS    CLOUDY    79  55  44 S5        29.81F
HELENA         CLOUDY    77  55  47 W5        29.86S
MALMSTROM AFB  CLOUDY    81  52  37 S3        29.82F
* CONRAD       PTCLDY    81  52  37 SE6        N/A
* EAST GLACIER N/A       77  40  27 W15G22     N/A
* MONARCH      N/A       75  38  26 SW8        N/A
* PENDROY      N/A       80  48  33 SE8        N/A
* ROGERS PASS  N/A       76  42  30 SE5G11     N/A
* SAINT MARY   N/A       79  40  25 SW6G13     N/A
* SWEET GRASS  N/A       79  41  26 S4         N/A
* WHITE SULPH  N/A       76  38  25 SW3G9      N/A
$$

MTZ011-013-016-021-035-040-045-047-050-051-180000-
NORTH CENTRAL MONTANA
CITY           SKY/WX    TMP DP  RH WIND       PRES   REMARKS
HAVRE          PTCLDY    82  52  35 SE8       29.77F
LEWISTOWN      MOCLDY    79  52  39 E10       29.88F
* CHINOOK      PTCLDY    79  57  47 E9        29.78F
* FORT BENTON  PTCLDY    82  46  28 E6        29.78F
* CHESTER      N/A       84  42  23 S4G12      N/A
* DENTON       N/A       83  44  25 NE6        N/A
* GEYSER       N/A       80  48  33 E3         N/A
* JUDITH GAP   N/A       80  47  31 S12        N/A
* LOMA         N/A       85  45  25 NE11       N/A
$$

MTZ017>020-022>027-061-062-180000-
NORTHEAST MONTANA
CITY           SKY/WX    TMP DP  RH WIND       PRES   REMARKS
GLASGOW        CLEAR     81  46  29 SE14      29.82F
GLENDIVE       CLEAR     77  48  36 SE10G16   29.90F
JORDAN         PTCLDY    82  45  27 SE9       29.83F
SIDNEY         CLEAR    N/A N/A N/A SE12      29.91F
WOLF POINT     CLEAR     81  46  29 SE9       29.85F
* BEAVER HILL  N/A       74  48  40 E14G20     N/A
* CIRCLE       N/A       79  53  41 SE11       N/A
* LINDSAY DVD  N/A       75  51  43 E14        N/A
* NAVAJO       N/A       76  41  29 SE14       N/A
* SACO         N/A       80  49  34 E13G18     N/A
$$

MTZ028>042-056>058-180000-
SOUTHCENTRAL AND SOUTHEAST MONTANA
CITY           SKY/WX    TMP DP  RH WIND       PRES   REMARKS
BAKER          CLEAR     75  50  42 S18       29.92F
BILLINGS       MOCLDY    84  43  24 CALM      29.86F
LIVINGSTON     MOCLDY    82  45  27 NW3       29.90F
MILES CITY     CLEAR     82  43  25 SE7       29.84F
* LAUREL APT   MOCLDY    84  45  26 N/A        N/A
* ROUNDUP APT  MOCLDY    82  46  28 N/A        N/A
* ALZADA       N/A       80  48  33 E8G13      N/A
* HYSHAM       N/A       80  48  33 NE5        N/A
* LAME DEER    N/A       78  47  34 N7         N/A
* REED POINT   N/A       87  49  27 NE1G6      N/A
* ROSCOE HILL  N/A       74  36  25 E5         N/A
$$

REGIONAL REPORTS...DAKOTAS
CITY           SKY/WX    TMP DP  RH WIND       PRES   REMARKS
WILLISTON      CLEAR     75  41  30 S12       29.92F
DICKINSON      PTCLDY    72  46  40 SE13      29.93S
BEACH          N/A       72  46  40 E13G18    29.93F
CROSBY         CLEAR     72  48  43 E15G21    29.94F
TIOGA          CLEAR     72  39  30 S13G20    29.97F
WATFORD CITY   CLEAR     73  41  32 SE14      29.92S
BISMARCK       PTCLDY    70  52  53 E6        29.96S
GRAND FORKS    CLEAR     64  46  52 NE10      30.01S
FARGO          CLEAR     72  50  46 N10       29.97S
BUFFALO SD     PTCLDY    75  52  45 E16       29.88F
RAPID CITY     PTCLDY    79  48  34 SE12      29.92S
$$

REGIONAL REPORTS...WYOMING/IDAHO/WASHINGTON
CITY           SKY/WX    TMP DP  RH WIND       PRES   REMARKS
GILLETTE       CLEAR     82  45  27 NE9       29.93F
SHERIDAN       CLEAR     84  46  26 CALM      29.91F
CODY           PTCLDY    79  43  28 S12G22    29.97R
YELLOWSTONE LA MOCLDY    66  36  33 VRB3      30.22R
SALMON         CLOUDY    72  50  46 W5        29.89F
MULLAN PASS    CLOUDY    70  43  38 VRB3      29.96S
SAND POINT     MOCLDY    77  46  33 E3        29.74F
SPOKANE        MOCLDY    82  39  22 NE6       29.73F
$$

REGIONAL REPORTS...ALBERTA
CITY           SKY/WX    TMP DP  RH WIND       PRES   REMARKS
CALGARY        MOCLDY    77  39  26 VRB2      29.75F
LETHBRIDGE     MOCLDY    82  39  22 VRB5      29.75F
MEDICINE HAT   MOCLDY    82  46  28 SE3       29.73F
EDMONTON       MOCLDY    75  46  36 SW10      29.68F
WATERTON GATE  N/A       79  39  24 SW10G17    N/A
CARDSTON       N/A       81  43  26 SW3        N/A
MILK RIVER     N/A       81  46  29 S7         N/A
$$

REGIONAL REPORTS...SASKATCHEWAN
CITY           SKY/WX    TMP DP  RH WIND       PRES   REMARKS
SWIFT CURRENT  CLEAR     79  43  28 S10G22    29.79F
MOOSE JAW      FAIR      72  52  49 SE15G21   29.86F
REGINA         FAIR      66  50  56 SE14G22   29.91F
VAL MARIE      N/A       77  46  33 S15        N/A
ASSINIBOIA     N/A       77  39  26 S12G18     N/A
CORONACH       N/A       75  39  27 SE13G18    N/A

$$



USA.gov is the U.S. government's official web portal to all federal, state and local government web resources and services.